STARLINK-1913 (47179 NORAD) Tracking and Keplerian Element Data

This shows tracking and keplerian element data for the satellite.

Feedback or suggestion? Click here.




ElementValue
Catalog47179
NameSTARLINK-1913
Epoch Orbit181
Epoch Day101.91668981
Epoch Year2021
RAAN79.6949
Inclination53.0541
Eccentricity5.16E-05
Argument of Perigee105.3026
Mean Anonmoly272.7572
Mean Motion15.06386581
Decay Rate0.00024183
L11 47179U 20088BK 21101.91668981 .00024183 00000-0 16374-2 0 9990
L22 47179 53.0541 79.6949 0000516 105.3026 272.7572 15.06386581 1816

Live tracking and technical data element details for STARLINK-1913 (NORAD 47179). STARLINK-1913 can be tracked NOW for your location showing map with azimuth and elevation plus other details from your city location.

Track the satellite on the map from your city or location and see movement details for azimuth, elevation, latitude, longitude, range, height, and movement on the map or in text.







IsCatalogInMostPopularTable: catalog: 47179, numindb: 47
Update: records affected: 1



GetName: 47179 STARLINK-1913

Hit Count: updated at: Tue, 13 Apr 2021 05:24:24 GMT